Hourly Weather Rudnya

Today, 15 April, Thursday

Time Temperature Precipitation Wind Pressure Humidity
00:00 +3°C° 0.4 mm 5 mps 749 mmHg 95%
01:00 +3°C° 0.4 mm 5 mps 749 mmHg 95%
02:00 +3°C° 0 mm 5 mps 749 mmHg 94%
03:00 +3°C° 0.1 mm 5 mps 749 mmHg 94%
04:00 +3°C° 0.1 mm 5 mps 749 mmHg 94%
05:00 +3°C° 0.1 mm 5 mps 749 mmHg 94%
06:00 +3°C° 0 mm 5 mps 750 mmHg 93%
07:00 +3°C° 0 mm 5 mps 750 mmHg 92%
08:00 +3°C° 0 mm 5 mps 750 mmHg 91%
09:00 +3°C° 0.2 mm 5 mps 750 mmHg 91%
10:00 +3°C° 0.2 mm 5 mps 750 mmHg 91%
11:00 +2°C° 0.2 mm 5 mps 750 mmHg 91%
12:00 +2°C° 0.4 mm 5 mps 750 mmHg 91%
13:00 +2°C° 0.4 mm 5 mps 749 mmHg 91%
14:00 +2°C° 0.4 mm 5 mps 749 mmHg 92%
15:00 +2°C° 0.7 mm 5 mps 749 mmHg 92%
16:00 +3°C° 0.7 mm 5 mps 749 mmHg 92%
17:00 +3°C° 0.7 mm 6 mps 749 mmHg 92%
18:00 +3°C° 0.1 mm 6 mps 749 mmHg 93%
19:00 +3°C° 0.1 mm 5 mps 749 mmHg 93%
20:00 +2°C° 0.1 mm 5 mps 749 mmHg 94%
21:00 +3°C° 0 mm 5 mps 748 mmHg 94%
22:00 +3°C° 0 mm 5 mps 748 mmHg 95%
23:00 +3°C° 0 mm 5 mps 748 mmHg 95%

Tomorrow, 16 April, Friday

Time Temperature Precipitation Wind Pressure Humidity
00:00 +3°C° 0 mm 5 mps 747 mmHg 96%
01:00 +3°C° 0 mm 5 mps 747 mmHg 96%
02:00 +3°C° 0 mm 5 mps 747 mmHg 96%
03:00 +5°C° 0.2 mm 5 mps 747 mmHg 96%
04:00 +5°C° 0.2 mm 5 mps 747 mmHg 96%
05:00 +5°C° 0.2 mm 5 mps 747 mmHg 96%
06:00 +5°C° 0 mm 4 mps 747 mmHg 96%
07:00 +6°C° 0 mm 4 mps 747 mmHg 96%
08:00 +6°C° 0 mm 4 mps 747 mmHg 95%
09:00 +7°C° 0 mm 4 mps 748 mmHg 92%
10:00 +8°C° 0 mm 5 mps 748 mmHg 88%
11:00 +9°C° 0 mm 5 mps 748 mmHg 84%
12:00 +10°C° 0.3 mm 5 mps 748 mmHg 82%
13:00 +10°C° 0.3 mm 5 mps 748 mmHg 81%
14:00 +11°C° 0.3 mm 6 mps 748 mmHg 79%
15:00 +12°C° 0.4 mm 5 mps 748 mmHg 77%
16:00 +12°C° 0.4 mm 5 mps 748 mmHg 74%
17:00 +12°C° 0.4 mm 5 mps 748 mmHg 71%
18:00 +10°C° 0.4 mm 5 mps 748 mmHg 77%
19:00 +9°C° 0.4 mm 5 mps 749 mmHg 82%
20:00 +8°C° 0.4 mm 5 mps 749 mmHg 88%
21:00 +8°C° 0 mm 5 mps 749 mmHg 90%
22:00 +8°C° 0 mm 5 mps 750 mmHg 91%
23:00 +7°C° 0 mm 5 mps 750 mmHg 93%

Day after tomorrow, 17 April, Saturday

Time Temperature Precipitation Wind Pressure Humidity
00:00 +7°C° 0 mm 4 mps 750 mmHg 93%
01:00 +7°C° 0 mm 4 mps 750 mmHg 93%
02:00 +7°C° 0 mm 4 mps 750 mmHg 93%
03:00 +7°C° 0 mm 4 mps 750 mmHg 92%
04:00 +7°C° 0 mm 4 mps 750 mmHg 91%
05:00 +8°C° 0 mm 3 mps 751 mmHg 90%
06:00 +7°C° 0 mm 4 mps 751 mmHg 87%
07:00 +8°C° 0 mm 4 mps 751 mmHg 84%
08:00 +8°C° 0 mm 4 mps 752 mmHg 81%
09:00 +10°C° 0.1 mm 4 mps 752 mmHg 76%
10:00 +11°C° 0.1 mm 4 mps 752 mmHg 71%
11:00 +12°C° 0.1 mm 4 mps 752 mmHg 65%
12:00 +13°C° 0.1 mm 4 mps 752 mmHg 62%
13:00 +14°C° 0.1 mm 4 mps 752 mmHg 58%
14:00 +14°C° 0.1 mm 4 mps 752 mmHg 55%
15:00 +14°C° 0.1 mm 5 mps 752 mmHg 60%
16:00 +13°C° 0.1 mm 5 mps 753 mmHg 65%
17:00 +13°C° 0.1 mm 5 mps 753 mmHg 71%
18:00 +12°C° 0.1 mm 5 mps 753 mmHg 75%
19:00 +11°C° 0.1 mm 4 mps 753 mmHg 79%
20:00 +10°C° 0.1 mm 4 mps 753 mmHg 83%
21:00 +10°C° 0.2 mm 4 mps 753 mmHg 85%
22:00 +9°C° 0.2 mm 3 mps 753 mmHg 87%
23:00 +9°C° 0.2 mm 3 mps 753 mmHg 89%

18 April, Sunday

Time Temperature Precipitation Wind Pressure Humidity
00:00 +9°C° 0.1 mm 3 mps 753 mmHg 90%
01:00 +8°C° 0.1 mm 3 mps 753 mmHg 91%
02:00 +7°C° 0.1 mm 4 mps 753 mmHg 92%
03:00 +7°C° 0 mm 4 mps 753 mmHg 92%
04:00 +6°C° 0 mm 4 mps 753 mmHg 93%
05:00 +5°C° 0 mm 4 mps 753 mmHg 93%
06:00 +6°C° 0 mm 4 mps 753 mmHg 88%
07:00 +7°C° 0 mm 4 mps 753 mmHg 84%
08:00 +8°C° 0 mm 5 mps 753 mmHg 79%
09:00 +9°C° 0 mm 5 mps 753 mmHg 74%
10:00 +12°C° 0 mm 5 mps 753 mmHg 69%
11:00 +13°C° 0 mm 5 mps 753 mmHg 64%
12:00 +14°C° 0 mm 5 mps 753 mmHg 62%
13:00 +14°C° 0 mm 5 mps 753 mmHg 61%
14:00 +14°C° 0 mm 4 mps 753 mmHg 59%
15:00 +13°C° 0 mm 4 mps 753 mmHg 63%
16:00 +13°C° 0 mm 3 mps 753 mmHg 66%
17:00 +12°C° 0 mm 3 mps 753 mmHg 70%
18:00 +13°C° 0 mm 2 mps 753 mmHg 72%
19:00 +12°C° 0 mm 2 mps 754 mmHg 74%
20:00 +12°C° 0 mm 2 mps 754 mmHg 76%
21:00 +10°C° 0 mm 2 mps 754 mmHg 77%
22:00 +10°C° 0 mm 2 mps 754 mmHg 79%
23:00 +10°C° 0 mm 2 mps 754 mmHg 81%

19 April, Monday

Time Temperature Precipitation Wind Pressure Humidity
00:00 +9°C° 0 mm 2 mps 754 mmHg 83%
01:00 +8°C° 0 mm 2 mps 754 mmHg 85%
02:00 +8°C° 0 mm 2 mps 755 mmHg 86%
03:00 +8°C° 0 mm 2 mps 755 mmHg 86%
04:00 +8°C° 0 mm 2 mps 755 mmHg 85%
05:00 +9°C° 0 mm 1 mps 755 mmHg 84%
06:00 +8°C° 0 mm 2 mps 755 mmHg 81%
07:00 +9°C° 0 mm 2 mps 755 mmHg 78%
08:00 +10°C° 0 mm 2 mps 755 mmHg 76%
09:00 +11°C° 0 mm 3 mps 755 mmHg 66%
10:00 +12°C° 0 mm 4 mps 755 mmHg 56%
11:00 +14°C° 0 mm 5 mps 755 mmHg 46%
12:00 +14°C° 0 mm 5 mps 754 mmHg 44%
13:00 +15°C° 0 mm 5 mps 754 mmHg 42%
14:00 +15°C° 0 mm 5 mps 754 mmHg 40%
15:00 +15°C° 0 mm 5 mps 754 mmHg 44%
16:00 +14°C° 0 mm 5 mps 753 mmHg 48%
17:00 +14°C° 0 mm 5 mps 753 mmHg 52%
18:00 +12°C° 0 mm 4 mps 753 mmHg 58%
19:00 +10°C° 0 mm 3 mps 753 mmHg 64%
20:00 +9°C° 0 mm 2 mps 754 mmHg 71%
21:00 +9°C° 0 mm 2 mps 753 mmHg 71%
22:00 +9°C° 0 mm 2 mps 753 mmHg 71%
23:00 +9°C° 0 mm 3 mps 753 mmHg 71%

20 April, Tuesday

Time Temperature Precipitation Wind Pressure Humidity
00:00 +8°C° 0 mm 3 mps 753 mmHg 75%
01:00 +7°C° 0 mm 3 mps 753 mmHg 79%
02:00 +5°C° 0 mm 3 mps 753 mmHg 83%
03:00 +5°C° 0 mm 3 mps 753 mmHg 85%
04:00 +4°C° 0 mm 3 mps 753 mmHg 87%
05:00 +4°C° 0 mm 3 mps 753 mmHg 89%
06:00 +5°C° 0 mm 4 mps 753 mmHg 82%
07:00 +7°C° 0 mm 4 mps 753 mmHg 76%
08:00 +8°C° 0 mm 5 mps 753 mmHg 69%
09:00 +9°C° 0 mm 5 mps 752 mmHg 62%
10:00 +10°C° 0 mm 5 mps 752 mmHg 56%
11:00 +12°C° 0 mm 5 mps 752 mmHg 49%
12:00 +13°C° 0 mm 5 mps 751 mmHg 47%
13:00 +13°C° 0 mm 6 mps 751 mmHg 45%
14:00 +14°C° 0 mm 6 mps 750 mmHg 43%
15:00 +14°C° 0 mm 5 mps 750 mmHg 45%
16:00 +13°C° 0 mm 5 mps 750 mmHg 47%
17:00 +13°C° 0 mm 5 mps 749 mmHg 49%
18:00 +11°C° 0 mm 4 mps 749 mmHg 52%
19:00 +8°C° 0 mm 4 mps 749 mmHg 56%
20:00 +7°C° 0 mm 3 mps 749 mmHg 59%
21:00 +5°C° 0 mm 3 mps 749 mmHg 62%
22:00 +6°C° 0 mm 2 mps 749 mmHg 64%
23:00 +5°C° 0 mm 2 mps 749 mmHg 67%
Show more